Hourly Data Report for October 11, 2015

All times are specified in Local Standard Time (LST). Add 1 hour to adjust for Daylight Saving Time where and when it is observed.

MONCTON INTL A
NEW BRUNSWICK

46°06'44.000" N
64°40'43.000" W
70.70 m
8103201
71705
YQM

Download Data

Hourly Data (October 2015)
Hourly Data Report for October 11, 2015
Temp Definition
°C
Dew Point Temp Definition
°C
Rel Hum Definition
%
Wind Dir Definition
10's deg

Wind Spd Definition
km/h
Visibility Definition
km
Stn Press Definition
kPa
Hmdx Definition


Wind Chill Definition


Weather Definition


TIME
00:00 Legend Double Dagger 0.5 -3.4 75 23 16 24.1 100.56     LegendNANA
01:00 Legend Double Dagger 0.7 -3.2 75 24 16 24.1 100.54     LegendNANA
02:00 Legend Double Dagger 1.1 -2.5 77 22 13 24.1 100.52     Mostly Cloudy
03:00 Legend Double Dagger 1.4 -2.2 77 23 12 24.1 100.48     LegendNANA
04:00 Legend Double Dagger 2.2 -1.6 76 23 10 24.1 100.43     LegendNANA
05:00 Legend Double Dagger 2.3 -1.3 77 22 9 24.1 100.43     LegendNANA
06:00 Legend Double Dagger 2.2 -1.1 79 22 5 24.1 100.38     LegendNANA
07:00 Legend Double Dagger 3.1 -0.7 76 17 5 24.1 100.32     LegendNANA
08:00 Legend Double Dagger 4.4 -0.8 69 17 9 24.1 100.28     Cloudy
09:00 Legend Double Dagger 6.1 -0.2 64 17 12 24.1 100.24     LegendNANA
10:00 Legend Double Dagger 8.9 2.9 66 19 13 24.1 100.12     LegendNANA
11:00 Legend Double Dagger 11.0 5.2 67 21 21 24.1 100.04     Cloudy
12:00 Legend Double Dagger 10.2 7.1 81 22 18 16.1 99.99     Rain Showers
13:00 Legend Double Dagger 10.2 8.7 90 22 17 19.3 99.94     Rain Showers
14:00 Legend Double Dagger 11.0 9.3 89 21 16 19.3 99.85     Rain Showers
15:00 Legend Double Dagger 11.3 8.4 82 20 16 24.1 99.77     Rain Showers
16:00 Legend Double Dagger 11.7 8.4 80 22 15 24.1 99.76     LegendNANA
17:00 Legend Double Dagger 11.0 7.5 79 22 14 24.1 99.79     Cloudy
18:00 Legend Double Dagger 10.6 7.0 78 23 16 24.1 99.84     LegendNANA
19:00 Legend Double Dagger 10.4 7.5 82 22 13 24.1 99.89     LegendNANA
20:00 Legend Double Dagger 10.2 7.6 84 22 12 24.1 99.91     Rain Showers
21:00 Legend Double Dagger 10.4 7.7 83 22 13 24.1 99.93     Rain Showers
22:00 Legend Double Dagger 9.7 7.8 88 20 11 24.1 99.94     LegendNANA
23:00 Legend Double Dagger 9.6 7.9 89 21 8 24.1 99.93     Cloudy

Notes on Data Quality.

Legend

  • E = Estimated
  • M = Missing
  • NA = Not Available
  • ‡ = Partner data that is not subject to review by the National Climate Archives
Date modified: